UMMENDORF Weather Reports


Display with metric or nautical units.
time (UTC)temp
F
wind
direction
speed
MPH
gust
MPH
rain 1hr
in
rain 24hr
in
rain mn
in
humidity
%
barometer
mb
20260506203210 49 224 12.0 0.0 0.00 0.00 0.08 63 1010.8
20260506200210 49 195 10.0 0.0 0.00 0.00 0.08 63 1010.5
20260506193215 49 231 10.0 0.0 0.00 0.00 0.08 63 1010.2
20260506190211 49 223 14.0 0.0 0.00 0.00 0.08 61 1009.7
20260506183209 50 211 12.0 0.0 0.00 0.00 0.08 62 1009.2
20260506180216 50 213 13.0 0.0 0.00 0.00 0.08 62 1009.2
20260506173210 50 246 15.0 0.0 0.00 0.00 0.08 61 1008.9
20260506170215 51 256 14.0 0.0 0.00 0.00 0.08 60 1008.5
20260506163210 51 224 11.0 0.0 0.00 0.00 0.08 62 1008.4
20260506160210 51 260 12.0 0.0 0.00 0.00 0.08 63 1008.2
20260506153210 51 256 29.0 0.0 0.00 0.00 0.07 62 1007.8
20260506150210 53 219 26.0 0.0 0.00 0.00 0.04 60 1007.0
20260506143210 64 222 7.0 0.0 0.00 0.00 0.00 48 1005.6
20260506140210 62 98 7.0 0.0 0.00 0.00 0.00 48 1005.6
20260506133211 63 259 3.0 0.0 0.00 0.00 0.00 51 1005.9
20260506130211 64 226 5.0 0.0 0.00 0.00 0.00 49 1005.8
20260506123210 62 234 4.0 0.0 0.00 0.00 0.00 50 1005.7
20260506120210 62 43 3.0 0.0 0.00 0.00 0.00 50 1005.6
20260506113217 63 274 6.0 0.0 0.00 0.00 0.00 49 1005.8
20260506110210 62 13 8.0 0.0 0.00 0.00 0.00 50 1006.0
20260506100213 60 342 4.0 0.0 0.00 0.00 0.00 51 1006.3
20260506093211 60 270 4.0 0.0 0.00 0.00 0.00 49 1006.7
20260506090211 61 221 6.0 0.0 0.00 0.00 0.00 48 1006.8
20260506083211 59 287 5.0 0.0 0.00 0.00 0.00 50 1006.7
20260506080212 56 295 0.0 0.0 0.00 0.00 0.00 53 1007.0
20260506073211 55 308 3.0 0.0 0.00 0.00 0.00 57 1007.1
20260506070212 55 254 6.0 0.0 0.00 0.00 0.00 61 1007.2
20260506060210 50 138 3.0 0.0 0.00 0.00 0.00 72 1007.1
20260506050211 47 114 0.0 0.0 0.00 0.00 0.00 69 1007.2
20260506043211 47 121 3.0 0.0 0.00 0.00 0.00 67 1007.6
20260506040211 47 145 0.0 0.0 0.00 0.00 0.00 67 1007.7
20260506033211 48 145 0.0 0.0 0.00 0.00 0.00 67 1008.1
20260506030212 49 172 2.0 0.0 0.00 0.00 0.00 67 1008.4
20260506023211 49 262 0.0 0.0 0.00 0.00 0.00 67 1008.4
20260506020212 49 213 0.0 0.0 0.00 0.00 0.00 66 1008.7
20260506013211 49 219 4.0 0.0 0.00 0.00 0.00 66 1008.6
20260506010213 50 197 0.0 0.0 0.00 0.00 0.00 66 1009.3
20260506003209 50 197 1.0 0.0 0.00 0.00 0.00 66 1009.0
20260506000211 49 217 4.0 0.0 0.00 0.00 0.00 65 1009.2
20260505233209 49 215 0.0 0.0 0.00 0.00 0.00 65 1009.3
20260505230209 50 236 0.0 0.0 0.00 0.00 0.00 64 1009.6
20260505223210 50 240 1.0 0.0 0.00 0.00 0.00 62 1009.6
20260505220209 51 240 4.0 0.0 0.00 0.00 0.00 61 1009.5
20260505213211 53 246 1.0 0.0 0.00 0.00 0.02 61 1009.6
20260505210215 54 167 9.0 0.0 0.00 0.00 0.02 59 1009.4